www.pogodaiklimat.ru

Погода и климат >> Архив погоды >> Таиланд >> Паттайя


ПОГОДА в Паттайе

  • Прогноз погоды в Паттайе
  • Монитор погоды в Паттайе

АРХИВ ПОГОДЫ в Паттайе

Время (UTC), дата Ветер
(напр.,м/с)
 
Видим.   Явления Облачность Т
(С)
Тd
(С)
f
(%)
Тe
(С)
Тes
(С)
Комфортность P
(гПа)
Po
(гПа)
Тmin
(С)
Tmax
(С)
R
(мм)
R24
(мм)
S
(см)
21 16.09 ЮЗ 4 10 км 8/4 600 м
[Sc Ac As Cs]
+27.5 +23.9 81 +38 +38 очень
душно
1006.8 999.9
00 17.09 штиль 0 12 км 10/5 600 м
[Sc Ac As Cs]
+27.5 +25.4 88 +40 +40 очень
душно
1007.6 1000.7 +26.5
03 17.09 СЗ 3 8000 м дымка 10/5 600 м
[Sc Ac As Cs]
+29.6 +26.1 82 +45 +48 опасность
перегрева
1009.1 1002.2
06 17.09 ЮЗ 3 2000 м гроза, ливневой дождь 10/6 600 м
[Cb cap As op]
+25.5 +24.6 95 +36 +37 очень
душно
1007.9 1000.9 12
09 17.09 штиль 0 10 км в посл. час дождь {гроза} 10/5 600 м
[Sc Ac As Cs]
+25.0 +24.3 96 +35 +37 очень
душно
1006.0 999.0 22
12 17.09 штиль 0 10 км {гроза, дождь} 10/5 600 м
[Sc Ac As Cs]
+26.5 +25.4 94 +39 +39 очень
душно
1007.2 1000.3 +30.1 34
15 17.09 штиль 0 10 км 6/3 600 м
[Sc Cs]
+26.0 +25.1 95 +37 +37 очень
душно
1008.6 1001.6
18 17.09 ЮВ 3 10 км 8/4 600 м
[Sc Ac As Cs]
+26.0 +25.1 95 +37 +37 очень
душно
1008.4 1001.4
21 17.09 штиль 0 10 км 8/4 600 м
[Sc Ac As Cs]
+26.3 +25.3 94 +38 +38 очень
душно
1007.2 1000.3
00 18.09 штиль 0 10 км 10/5 600 м
[Sc Ac As Cs]
+26.3 +25.1 93 +38 +38 очень
душно
1008.8 1001.8 +25.5
03 18.09 СЗ 3 8000 м дымка 8/4 600 м
[Sc Ac As Cs]
+29.5 +26.3 83 +45 +50 опасность
перегрева
1010.0 1003.1
06 18.09 СЗ 6 7000 м дымка 8/3 600 м
[Sc Ac As Cs]
+31.1 +24.7 69 +44 +48 опасность
перегрева
1008.0 1001.2
09 18.09 штиль 0 7000 м дымка {гроза} 10/4 600 м
[Sc Ac As Cs]
+29.9 +24.5 73 +42 +45 опасность
перегрева
1006.2 999.3
12 18.09 штиль 0 10 км {гроза} 8/3 600 м
[Sc Ac As Cs]
+28.4 +25.0 82 +41 +41 опасность
перегрева
1007.8 1000.9 +31.3
15 18.09 штиль 0 10 км 8/4 600 м
[Sc Ac As Cs]
+27.6 +25.0 86 +40 +40 очень
душно
1010.1 1003.1
18 18.09 штиль 0 10 км 10/4 600 м
[Sc Ac As Cs]
+26.9 +25.2 90 +39 +39 очень
душно
1009.0 1002.1
21 18.09 штиль 0 10 км 10/4 600 м
[Sc Ac As Cs]
+26.7 +25.4 93 +39 +39 очень
душно
1008.3 1001.3
00 19.09 штиль 0 10 км 10/5 600 м
[Sc Ac As Cs]
+26.4 +24.4 89 +37 +37 очень
душно
1009.6 1002.6 +26.0
03 19.09 штиль 0 10 км 9/4 600 м
[Sc Ac As Cs]
+27.5 +24.5 84 +39 +46 очень
душно
1010.9 1003.9
06 19.09 СЗ 3 10 км 9/4 600 м
[Sc Ac As Cs]
+29.4 +24.7 76 +42 +48 опасность
перегрева
1008.8 1002.0
09 19.09 штиль 0 10 км {гроза} 10/5 600 м
[Sc Ac As Cs]
+28.5 +25.4 83 +42 +44 опасность
перегрева
1007.3 1000.4
12 19.09 Ю 3 10 км {гроза} 10/5 600 м
[Sc Ac As Cs]
+26.9 +25.2 90 +39 +39 очень
душно
1008.2 1001.2 +29.5
15 19.09 штиль 0 10 км слаб. дождь 10/5 600 м
[Sc Ac As Cs]
+26.4 +25.4 94 +38 +38 очень
душно
1010.4 1003.4 1
18 19.09 С 4 8000 м слаб. дождь 10/6 600 м
[Cb cap Ac As]
+26.1 +25.4 96 +38 +38 очень
душно
1010.0 1003.0 0.1
21 19.09 штиль 0 10 км в посл. час дождь 10/5 600 м
[Sc Ac As Cs]
+24.5 +23.8 96 +33 +33 очень
душно
1008.0 1001.0 3
00 20.09 штиль 0 10 км {дождь} 10/4 600 м
[Sc Ac As Cs]
+24.9 +24.3 96 +34 +35 очень
душно
1008.8 1001.8 +24.1 4
03 20.09 З 7 10 км 9/4 600 м
[Sc Ac As Cs]
+28.8 +24.5 78 +41 +42 опасность
перегрева
1010.2 1003.3
06 20.09 СЗ 5 10 км слаб. дождь 9/5 600 м
[Sc Ac As Cs]
+27.9 +25.5 87 +41 +44 опасность
перегрева
1008.5 1001.6 0.3
09 20.09 ЮЗ 6 10 км {дождь} 9/4 600 м
[Sc Ac As Cs]
+28.5 +24.8 80 +41 +42 опасность
перегрева
1006.6 999.7 0.0
12 20.09 ЮЗ 4 10 км {дождь} 9/4 600 м
[Sc Ac As Cs]
+27.9 +25.0 84 +40 +40 очень
душно
1007.6 1000.7 +29.7 0.3
15 20.09 штиль 0 10 км 9/4 600 м
[Sc Ac As Cs]
+26.9 +24.1 85 +37 +37 очень
душно
1009.4 1002.4
18 20.09 штиль 0 10 км слаб. дождь 10/5 600 м
[Sc Ac As Cs]
+25.6 +24.7 95 +36 +36 очень
душно
1008.1 1001.1 2
21 20.09 штиль 0 10 км в посл. час дождь 10/5 600 м
[Sc Ac As Cs]
+25.8 +24.9 95 +37 +37 очень
душно
1007.2 1000.3 18
00 21.09 штиль 0 10 км {дождь} 10/5 600 м
[Sc Ac As Cs]
+26.0 +25.1 95 +37 +38 очень
душно
1008.6 1001.6 +25.4 20
03 21.09 СВ 3 12 км 10/5 600 м
[Sc Ac As Cs]
+27.0 +25.6 92 +40 +43 очень
душно
1009.9 1002.9
06 21.09 З 3 12 км 10/4 600 м
[Sc Ac As Cs]
+29.5 +24.5 75 +42 +47 опасность
перегрева
1007.9 1001.0
09 21.09 З 3 10 км 8/4 600 м
[Sc Ac As Cs]
+29.5 +25.2 78 +43 +45 опасность
перегрева
1006.3 999.4
12 21.09 ЮЗ 3 10 км 8/4 600 м
[Sc Ac As Cs]
+27.0 +24.8 88 +39 +39 очень
душно
1008.3 1001.3 +29.8
15 21.09 З 5 10 км слаб. дождь 10/5 600 м
[Sc Ac As Cs]
+25.5 +24.0 91 +35 +35 очень
душно
1010.9 1003.9 1
18 21.09 З 3 10 км слаб. дождь 10/6 600 м
[Sc Ac As Cs]
+25.0 +24.3 96 +35 +35 очень
душно
1010.0 1003.0 4
21 21.09 З 5 10 км {дождь} 10/5 600 м
[Sc Ac As Cs]
+25.5 +24.0 91 +35 +35 очень
душно
1009.2 1002.2 0.6
00 22.09 штиль 0 10 км {дождь} 10/5 600 м
[Sc Ac As Cs]
+25.5 +24.0 91 +35 +35 очень
душно
1011.2 1004.2 +24.0 5
03 22.09 СЗ 5 10 км 10/5 600 м
[Sc Ac As Cs]
+27.0 +24.8 88 +39 +40 очень
душно
1012.2 1005.2
06 22.09 СЗ 6 10 км 10/5 600 м
[Sc Ac As Cs]
+28.5 +24.9 81 +41 +43 опасность
перегрева
1010.4 1003.4
09 22.09 З 4 10 км 8/4 600 м
[Sc Ac As Cs]
+28.5 +23.4 74 +39 +40 очень
душно
1009.1 1002.2
12 22.09 ЮЗ 7 10 км 8/4 600 м
[Sc Ac As Cs]
+27.0 +23.3 80 +36 +36 очень
душно
1010.9 1004.0 +29.0
15 22.09 ЮЗ 4 10 км 8/4 600 м
[Sc Ac As Cs]
+26.5 +24.3 88 +37 +37 очень
душно
1012.3 1005.3
18 22.09 штиль 0 10 км слаб. дождь 10/5 600 м
[Sc Ac As Cs]
+25.5 +24.0 91 +35 +35 очень
душно
1011.8 1004.8 3
21 22.09 штиль 0 10 км слаб. дождь 10/5 600 м
[Sc Ac As Cs]
+24.5 +23.8 96 +33 +33 очень
душно
1011.2 1004.2 2
00 23.09 ЮВ 3 10 км в посл. час дождь 10/5 600 м
[Sc Ac As Cs]
+24.0 +23.3 96 +32 +32 очень
душно
1012.8 1005.7 +24.0 16
03 23.09 штиль 0 10 км {дождь} 10/5 600 м
[Sc Ac As Cs]
+26.5 +25.2 93 +38 +43 очень
душно
1013.9 1006.9 1
06 23.09 штиль 0 10 км гроза без осадков 10/5 600 м
[Cb cap Ac As Cs]
+26.7 +25.1 91 +38 +45 очень
душно
1012.0 1005.0 2
09 23.09 штиль 0 10 км 10/5 600 м
[Sc Ac As Cs]
+26.4 +23.6 85 +36 +38 очень
душно
1010.2 1003.2
12 23.09 штиль 0 10 км 10/4 600 м
[Sc Ac As Cs]
+25.3 +23.7 91 +34 +34 очень
душно
1011.7 1004.7 +28.4
15 23.09 штиль 0 10 км 8/3 600 м
[Sc Ac As Cs]
+24.8 +23.9 95 +34 +34 очень
душно
1013.6 1006.6
18 23.09 штиль 0 10 км 8/3 600 м
[Sc Ac As Cs]
+24.7 +24.0 96 +34 +34 очень
душно
1012.7 1005.6

 

Местоположение метеостанции Паттайя (Таиланд): широта 12.92 долгота 100.86 высота над уровнем моря 61 м.

В архиве по умолчанию представлена погода в Паттайе за последнюю неделю. Архивные данные за месяц целиком и за предыдущие месяцы, начиная с января 2011 года, Вы можете получить, выбрав интересующий диапазон дат из раскрывающегося списка и нажав кнопку "Ввод!".


*Определитесь, кто Вы:
робот инопланетянин человек

Внимание! Время в таблицах - всемирное. Для получения местного времени необходимо прибавить поправку, которая равна 7 ч.

Смотрите также архив погоды в соседних городах и на ближайших метеорологических станциях:

Погода на Ко Сичан (Таиланд) (29 км)
Погода в Саттахипе (Таиланд) (30 км)
Погода в Хуайпонг Агромете (Таиланд) (36 км)
Погода в Чонбури (Таиланд) (52 км)
Погода в Ратбури (Таиланд) (52 км)
Погода в Бангкок Пилот (Таиланд) (58 км)
Погода в Районге (Таиланд) (62 км)
Погода в Самутрудкан Агромете (Таиланд) (68 км)
Погода в Аэропорту Суварнабхуми (Таиланд) (85 км)
Погода в Бангна Агромете (Таиланд) (87 км)

Пояснения к столбцам:

Ветер - указаны скорость ветра в м/с - средняя за 10 мин, порывы в срок и между сроками (в фигурных скобках) и направление, откуда дует ветер: С - северный, СВ - северо-восточный, В - восточный, ЮВ - юго-восточный, Ю - южный, ЮЗ - юго-западный, З - западный, СЗ - северо-западный.
Видимость - горизонтальная дальность видимости в метрах или километрах. При видимости от 1 до 10 км при отсутствии осадков обычно наблюдается дымка, при ухудшении видимости до 1 км и менее - туман. В сухую погоду видимость может ухудшаться дымом, пылью или мглою.
Явления - указаны атмосферные явления, наблюдавшиеся в срок или в последний час перед сроком; фигурными скобками обозначены явления, наблюдавшиеся между сроками (за 1-3 часа до срока); квадратными скобками обозначены град или гололедные отложения с указанием их диаметра в мм.
Облачность - указаны через наклонную черту общая и нижняя облачность в баллах и высота нижней границы облаков в метрах; квадратными скобками обозначены формы облаков: Ci - перистые, Cs - перисто-слоистые, Cc - перисто-кучевые, Ac - высококучевые, As - высокослоистые, Sc - слоисто-кучевые, Ns - слоисто-дождевые, Cu - кучевые, Cb - кучево-дождевые. Подробнее классификацию облаков см. в Атласе облаков (PDF).
T - Температура воздуха - температура, измеренная на высоте 2 м над землей.
Td - Температура точки росы - температура, при понижении до которой содержащийся в воздухе водяной пар достигнет насыщения.
f - Относительная влажность воздуха - влажноcть воздуха, измеренная на высоте 2 м над землей.
Te - Эффективная температура - температура, которую ощущает одетый по сезону человек в тени. Характеристика душности погоды. При расчете учитывается влияние влажности воздуха и скорости ветра на теплоощущения человека.
Tes - Эффективная температура на солнце - температура, которую ощущает человек, с поправкой на солнечный нагрев. Характеристика знойности погоды. Зависит от высоты солнца над горизонтом, облачности и скорости ветра. Ночью, в пасмурную погоду, а также при ветре 12 м/с и более поправка равна нулю.
P - Атмосферное давление - приведенное к уровню моря атмосферное давление.
Po - Атмосферное давление - измеренное на уровне метеостанции атмосферное давление.
Tmin - Минимальная температура - минимум температуры воздуха на высоте 2 м над землей.
Tmax - Максимальная температура - максимум температуры воздуха на высоте 2 м над землей.
R - Количество осадков - Количество выпавших осадков за период времени, мм. При наведении курсора мыши на число - период времени, за который выпало указанное количество осадков.
R24 - Количество осадков - Количество выпавших осадков за 24 часа, мм.
S - Снежный покров - Высота снежного покрова, см. При наведении курсора мыши на число - состояние снежного покрова и степень покрытия местности в баллах.